This demonstration page uses our WeatherBlox Daily Observations layout. Learn more.

Left ArrowRight Arrow

Hourly Observations for April 7, 2019

Temp ( °F °C ) Dew Point ( °F °C ) Humidity (%) Winds ( mph kmh ) Pressure ( in mb ) Visibility ( mi km ) Precip ( " mm )
12:52 am 00:52 Cloudy with Light Rain 62 16.7 51 10.6 67 67 Calm 29.81 1010 10 16 0.00 0.03
1:52 am 01:52 Cloudy with Light Rain 59 15 52 11.1 78 78 Calm 29.79 1009 10 16 0.01 0.25
2:52 am 02:52 Cloudy 59 15 52 11.1 78 78 W 3 6 29.78 1008 10 16 0.00 0.03
3:40 am 03:40 Cloudy with Light Rain 58 14.4 54 12.2 87 87 Calm 29.77 1008 10 16 0.05 1.27
3:52 am 03:52 Cloudy with Light Rain 58 14.4 54 12.2 87 87 SE 3 6 29.76 1008 10 16 0.05 1.27
4:52 am 04:52 Cloudy with Light Rain 57 13.9 54 12.2 90 90 SSE 6 9 29.75 1007 9 14 0.00 0.03
5:35 am 05:35 Cloudy with Mist and Fog 57 13.9 54 12.2 90 90 SSE 5 7 29.76 1008 5 8 0.00 0.03
5:52 am 05:52 Mostly Cloudy with Mist and Fog 57 13.9 54 12.2 90 90 SE 6 9 29.75 1007 5 8 0.00 0.03
6:05 am 06:05 Mostly Cloudy with Mist and Fog 56 13.3 53 11.7 90 90 SE 5 7 29.76 1008 5 8 0.00 0.00
6:52 am 06:52 Cloudy with Mist and Fog 57 13.9 54 12.2 90 90 SSW 3 6 29.76 1008 6 10 0.00 0.00
7:08 am 07:08 Cloudy with Mist and Fog 57 13.9 54 12.2 90 90 Calm 29.78 1008 6 10 0.00 0.00
7:16 am 07:16 Mostly Cloudy with Mist and Fog 57 13.9 53 11.7 87 87 SE 3 6 29.78 1008 6 10 0.00 0.00
7:52 am 07:52 Mostly Cloudy with Mist and Fog 56 13.3 53 11.7 90 90 SSE 6 9 29.78 1009 5 8 0.00 0.00
8:52 am 08:52 Mostly Cloudy 59 15 55 12.8 87 87 SSE 7 11 29.78 1008 8 13 0.00 0.00
9:52 am 09:52 Mostly Cloudy 61 16.1 55 12.8 81 81 SW 9 15 29.80 1009 8 13 0.00 0.00
10:34 am 10:34 Partly Cloudy 63 17.2 55 12.8 76 76 SW 7 11 29.79 1009 10 16 0.00 0.00
10:52 am 10:52 Mostly Cloudy 64 17.8 55 12.8 73 73 SW 9 15 29.80 1009 10 16 0.00 0.00
11:52 am 11:52 Cloudy 62 16.7 53 11.7 73 73 WNW 13 20 29.82 1010 10 16 0.00 0.00
12:52 pm 12:52 Cloudy 63 17.2 52 11.1 68 68 WNW 10 17 29.83 1010 10 16 0.00 0.00
1:52 pm 13:52 Mostly Cloudy 65 18.3 52 11.1 63 63 NW 18 30 29.81 1010 10 16 0.00 0.00
2:31 pm 14:31 Partly Cloudy 69 20.6 54 12.2 59 59 N 15 24 29.80 1009 10 16 0.00 0.00
2:52 pm 14:52 Partly Cloudy 70 21.1 53 11.7 55 55 NNW 16 26 29.82 1010 10 16 0.00 0.00
3:52 pm 15:52 Partly Cloudy 71 21.7 53 11.7 53 53 N 13 20 29.84 1011 10 16 0.00 0.00
4:52 pm 16:52 Partly Cloudy 72 22.2 52 11.1 50 50 NNW 17 28 29.85 1011 10 16 0.00 0.00
5:52 pm 17:52 Mostly Sunny 71 21.7 50 10 47 47 N 17 28 29.86 1011 10 16 0.00 0.00
6:52 pm 18:52 Mostly Sunny 69 20.6 49 9.4 49 49 N 14 22 29.88 1012 10 16 0.00 0.00
7:52 pm 19:52 Mostly Sunny 63 17.2 49 9.4 60 60 NNW 8 13 29.90 1013 10 16 0.00 0.00
8:52 pm 20:52 Clear 61 16.1 50 10 67 67 NNE 5 7 29.89 1012 10 16 0.00 0.00
9:52 pm 21:52 Clear 56 13.3 48 8.9 75 75 NNW 6 9 29.90 1013 10 16 0.00 0.00
10:52 pm 22:52 Clear 58 14.4 48 8.9 70 70 S 6 9 29.94 1014 10 16 0.00 0.00
11:52 pm 23:52 Clear 54 12.2 45 7.2 72 72 ESE 5 7 29.96 1015 10 16 0.00 0.00

Powered by AerisWeather